SCP
0 0 0 0 0 -0 -0 0 0 0 0 0 -0 0 0 -0 -1 -1 -0 -0 -0 -1 -1 -0 -0 -0 -0 -0 -0 -0 -0 -0
0 0 0 0 0 0 0 0 0 0 0 0 0 0 0 -1 -1 -0 -0 -0 -0 -0 -1 -1 -0 -0 -0 -0 -0 -0 -0 -0
0 0 -0 -0 0 0 -0 0 0 0 0 0 1 0 -0 -0 -0 -0 0 0 -0 -0 -1 -1 -0 -0 -0 -0 -0 -0 -0 -0
0 0 0 0 0 0 0 0 0 0 0 0 0 1 0 0 0 -0 0 0 0 -0 -0 -1 -0 -0 -0 -0 -0 -0 -0 -0
0 0 0 0 0 0 0 0 0 0 0 0 1 0 0 0 0 1 1 1 0 0 0 0 -0 -0 -0 0 0 -0 -0 0
0 0 0 0 0 -0 -0 0 0 0 0 1 1 1 0 0 2 1 1 1 1 1 1 1 1 0 -0 0 0 0 0 0
0 0 0 0 0 -0 0 0 0 0 0 0 2 1 1 1 1 2 1 1 1 1 1 1 1 1 0 0 0 0 0 0
0 0 0 0 0 0 0 0 0 0 0 0 1 1 1 1 1 1 1 1 1 1 2 1 1 1 1 1 1 1 1 1
0 0 0 0 0 0 0 0 0 0 0 0 0 0 1 1 1 1 1 1 1 1 1 1 2 2 2 2 2 1 1 1
0 0 0 0 0 -0 0 0 0 0 0 0 0 0 0 0 1 1 2 1 1 1 1 0 0 2 2 2 1 1 1 1
0 0 0 0 0 0 0 0 0 0 0 0 0 0 0 0 0 1 2 2 1 1 0 0 0 1 1 1 1 1 0 0
0 0 0 0 0 0 0 0 0 0 0 0 0 0 -0 0 0 0 0 2 3 1 1 0 1 1 0 0 0 0 0 0
0 0 0 0 0 0 0 0 0 0 0 0 0 -0 -0 0 0 0 0 1 3 2 1 1 0 0 0 0 0 0 0 0
0 0 0 0 0 0 0 0 0 0 0 0 0 0 0 0 0 0 0 1 2 3 1 0 0 3 0 0 0 0 0 0
0 0 0 0 0 0 0 0 0 0 0 0 0 0 0 0 0 0 0 0 1 1 0 2 3 4 4 2 2 2 1 1
0 0 -0 0 0 0 0 0 0 0 0 0 0 0 0 0 0 0 0 1 1 2 1 0 2 4 4 1 0 1 0 0
0 -0 -0 0 0 0 0 0 0 0 0 0 0 0 0 0 0 0 0 1 2 0 0 0 4 0 1 1 0 0 0 0
-0 -0 0 0 0 0 0 0 0 0 0 0 0 0 0 0 0 0 1 1 3 3 2 1 1 0 1 1 0 0 0 0
0 0 0 0 0 0 0 0 0 0 0 0 0 0 0 0 0 3 3 2 3 2 1 1 1 0 0 0 0 0 0 0
0 0 0 0 0 0 0 -0 0 0 0 0 0 0 0 0 2 3 3 3 4 2 1 1 0 0 0 0 0 0 0 0
Wind_Speed_500mb
9 8 15 12 29 16 22 25 26 10 16 24 41 42 30 30 44 33 49 58 59 57 55 53 49 45 41 38 36 32 31 32
2 20 17 35 35 37 32 23 14 8 7 21 28 37 48 44 37 33 46 54 58 58 56 53 51 47 43 40 38 34 31 30
10 23 19 39 45 45 28 20 17 9 13 20 29 40 50 47 38 31 49 57 58 59 56 54 53 51 48 46 42 39 33 30
19 23 22 28 61 50 33 35 6 10 10 12 40 41 56 42 35 25 42 61 61 61 59 56 53 52 52 51 49 45 39 35
18 23 21 27 66 23 26 24 10 13 8 19 40 35 46 41 30 32 29 52 63 65 64 58 55 53 54 54 53 49 44 39
12 22 26 36 42 49 35 42 38 24 9 11 42 44 39 46 41 38 37 34 56 65 67 65 61 55 57 56 56 53 48 42
12 15 21 51 22 28 25 12 16 12 11 20 41 32 38 47 44 50 44 42 45 62 67 66 62 60 56 55 53 51 48 43
16 17 21 40 24 30 19 36 9 7 4 24 21 27 30 47 53 56 54 49 41 57 67 64 60 56 56 57 58 56 51 48
32 61 58 38 17 21 19 13 25 17 9 20 9 27 32 37 50 64 61 52 47 37 64 61 57 58 61 64 62 58 55 51
50 58 50 19 29 7 16 23 35 34 29 33 34 26 31 46 45 61 71 65 57 50 42 60 51 51 56 59 58 56 54 51
62 64 66 44 21 19 22 29 34 34 37 41 50 48 44 49 52 44 38 63 67 61 45 44 55 51 45 55 55 54 52 51
57 59 59 23 16 29 40 40 41 42 45 50 61 61 54 43 51 40 7 44 64 63 43 38 37 48 47 39 43 47 46 49
42 35 20 29 27 29 38 40 50 54 62 62 68 78 63 63 49 55 33 18 52 67 58 57 46 41 36 40 24 30 22 27
18 17 23 19 47 30 44 60 61 70 67 63 65 68 67 71 71 47 50 41 49 67 65 54 71 51 35 35 28 28 37 34
20 16 13 28 40 28 54 60 37 64 67 65 68 67 65 63 69 67 47 52 39 59 61 69 63 78 38 36 49 38 48 50
24 32 42 41 43 25 51 35 36 25 36 50 68 64 62 61 62 67 48 61 49 55 65 70 86 80 48 30 34 39 37 44
32 42 34 37 39 24 32 40 35 41 48 53 54 52 56 63 63 63 50 63 65 64 74 88 76 72 73 67 49 54 54 47
31 31 22 14 12 16 24 20 37 37 40 23 46 51 49 59 59 60 59 50 49 60 71 52 76 78 54 87 74 64 63 51
27 35 8 14 8 13 10 20 47 32 23 8 14 27 51 39 54 59 38 38 48 53 50 51 62 64 66 67 62 77 61 53
39 30 9 12 10 10 12 23 15 29 24 20 35 18 31 31 45 44 41 44 52 54 48 42 45 66 68 69 82 76 80 71
Wind_Direction_500mb
163 196 217 248 258 295 332 77 51 52 69 92 124 124 136 179 172 174 174 168 164 167 171 173 172 171 169 167 162 154 145 146
173 243 244 241 271 273 290 105 97 13 57 88 134 132 150 171 178 177 178 171 167 170 175 178 177 178 176 174 171 165 156 152
228 248 262 270 271 286 311 316 79 91 42 94 108 131 152 176 191 189 181 175 174 173 178 181 183 182 181 180 178 175 168 165
232 259 262 261 268 272 276 290 97 79 52 123 140 136 154 180 194 201 175 178 178 178 181 184 188 187 185 185 183 182 179 176
253 265 273 255 263 265 254 256 213 145 106 108 138 141 152 175 184 213 175 178 182 183 182 187 189 192 191 188 188 188 187 187
262 256 264 269 282 293 294 246 258 179 117 102 127 143 146 167 184 204 194 195 192 190 187 188 189 193 195 192 193 193 194 195
237 249 267 291 350 337 336 86 77 72 64 117 137 144 148 168 182 196 206 205 209 201 196 193 193 191 196 195 197 200 202 203
245 256 272 285 314 344 7 343 90 117 141 121 139 154 166 179 182 195 212 209 214 211 203 199 198 196 192 196 200 204 207 209
228 240 253 270 305 321 351 337 338 356 317 280 196 188 197 201 200 203 218 220 210 222 211 205 204 203 201 200 202 207 211 215
256 269 274 273 297 278 282 282 299 310 306 292 287 280 234 214 217 215 211 219 227 217 211 211 212 213 215 211 209 210 216 219
244 248 261 273 270 270 264 273 282 285 285 280 275 276 270 236 222 238 218 207 218 211 203 200 215 220 221 226 222 218 221 227
249 244 254 269 257 258 263 271 266 265 262 259 265 269 275 272 223 224 220 203 199 194 197 190 207 218 231 234 236 230 231 233
238 240 252 272 279 252 252 257 257 252 245 245 250 256 262 259 267 233 241 259 205 196 208 194 219 222 226 229 233 217 237 233
254 213 225 212 260 259 252 248 244 246 241 237 240 251 257 255 251 257 254 255 213 222 224 212 211 205 202 208 212 219 230 233
254 242 227 210 250 244 250 255 252 237 236 234 235 237 249 258 255 253 253 251 222 212 211 202 193 199 179 195 206 196 209 223
249 234 233 238 237 233 239 248 264 236 247 222 224 229 237 245 256 250 244 250 236 221 207 195 185 189 187 200 209 212 207 211
231 239 235 231 231 199 222 243 261 255 248 227 222 230 240 237 244 242 228 239 237 214 195 189 196 195 200 244 228 224 221 217
278 268 209 179 205 201 210 221 233 243 254 247 219 230 235 235 231 234 223 233 215 201 198 216 205 203 204 200 214 234 227 225
254 280 230 143 227 211 252 249 242 241 217 225 313 253 230 226 221 221 199 205 203 204 199 211 218 205 193 200 208 217 224 224
259 269 229 146 239 245 245 250 233 231 183 111 63 32 205 212 202 210 199 204 207 214 214 215 220 203 209 207 216 219 220 242
Wind_Speed_850mb
9 8 15 12 29 16 22 25 26 10 16 24 41 42 30 30 44 33 49 58 59 57 55 53 49 45 41 38 36 32 31 32
2 20 17 35 35 37 32 23 14 8 7 21 28 37 48 44 37 33 46 54 58 58 56 53 51 47 43 40 38 34 31 30
10 23 19 39 45 45 28 20 17 9 13 20 29 40 50 47 38 31 49 57 58 59 56 54 53 51 48 46 42 39 33 30
19 23 22 28 61 50 33 35 6 10 10 12 40 41 56 42 35 25 42 61 61 61 59 56 53 52 52 51 49 45 39 35
18 23 21 27 66 23 26 24 10 13 8 19 40 35 46 41 30 32 29 52 63 65 64 58 55 53 54 54 53 49 44 39
12 22 26 36 42 49 35 42 38 24 9 11 42 44 39 46 41 38 37 34 56 65 67 65 61 55 57 56 56 53 48 42
12 15 21 51 22 28 25 12 16 12 11 20 41 32 38 47 44 50 44 42 45 62 67 66 62 60 56 55 53 51 48 43
16 17 21 40 24 30 19 36 9 7 4 24 21 27 30 47 53 56 54 49 41 57 67 64 60 56 56 57 58 56 51 48
32 61 58 38 17 21 19 13 25 17 9 20 9 27 32 37 50 64 61 52 47 37 64 61 57 58 61 64 62 58 55 51
50 58 50 19 29 7 16 23 35 34 29 33 34 26 31 46 45 61 71 65 57 50 42 60 51 51 56 59 58 56 54 51
62 64 66 44 21 19 22 29 34 34 37 41 50 48 44 49 52 44 38 63 67 61 45 44 55 51 45 55 55 54 52 51
57 59 59 23 16 29 40 40 41 42 45 50 61 61 54 43 51 40 7 44 64 63 43 38 37 48 47 39 43 47 46 49
42 35 20 29 27 29 38 40 50 54 62 62 68 78 63 63 49 55 33 18 52 67 58 57 46 41 36 40 24 30 22 27
18 17 23 19 47 30 44 60 61 70 67 63 65 68 67 71 71 47 50 41 49 67 65 54 71 51 35 35 28 28 37 34
20 16 13 28 40 28 54 60 37 64 67 65 68 67 65 63 69 67 47 52 39 59 61 69 63 78 38 36 49 38 48 50
24 32 42 41 43 25 51 35 36 25 36 50 68 64 62 61 62 67 48 61 49 55 65 70 86 80 48 30 34 39 37 44
32 42 34 37 39 24 32 40 35 41 48 53 54 52 56 63 63 63 50 63 65 64 74 88 76 72 73 67 49 54 54 47
31 31 22 14 12 16 24 20 37 37 40 23 46 51 49 59 59 60 59 50 49 60 71 52 76 78 54 87 74 64 63 51
27 35 8 14 8 13 10 20 47 32 23 8 14 27 51 39 54 59 38 38 48 53 50 51 62 64 66 67 62 77 61 53
39 30 9 12 10 10 12 23 15 29 24 20 35 18 31 31 45 44 41 44 52 54 48 42 45 66 68 69 82 76 80 71
Wind_Direction_850mb
163 196 217 248 258 295 332 77 51 52 69 92 124 124 136 179 172 174 174 168 164 167 171 173 172 171 169 167 162 154 145 146
173 243 244 241 271 273 290 105 97 13 57 88 134 132 150 171 178 177 178 171 167 170 175 178 177 178 176 174 171 165 156 152
228 248 262 270 271 286 311 316 79 91 42 94 108 131 152 176 191 189 181 175 174 173 178 181 183 182 181 180 178 175 168 165
232 259 262 261 268 272 276 290 97 79 52 123 140 136 154 180 194 201 175 178 178 178 181 184 188 187 185 185 183 182 179 176
253 265 273 255 263 265 254 256 213 145 106 108 138 141 152 175 184 213 175 178 182 183 182 187 189 192 191 188 188 188 187 187
262 256 264 269 282 293 294 246 258 179 117 102 127 143 146 167 184 204 194 195 192 190 187 188 189 193 195 192 193 193 194 195
237 249 267 291 350 337 336 86 77 72 64 117 137 144 148 168 182 196 206 205 209 201 196 193 193 191 196 195 197 200 202 203
245 256 272 285 314 344 7 343 90 117 141 121 139 154 166 179 182 195 212 209 214 211 203 199 198 196 192 196 200 204 207 209
228 240 253 270 305 321 351 337 338 356 317 280 196 188 197 201 200 203 218 220 210 222 211 205 204 203 201 200 202 207 211 215
256 269 274 273 297 278 282 282 299 310 306 292 287 280 234 214 217 215 211 219 227 217 211 211 212 213 215 211 209 210 216 219
244 248 261 273 270 270 264 273 282 285 285 280 275 276 270 236 222 238 218 207 218 211 203 200 215 220 221 226 222 218 221 227
249 244 254 269 257 258 263 271 266 265 262 259 265 269 275 272 223 224 220 203 199 194 197 190 207 218 231 234 236 230 231 233
238 240 252 272 279 252 252 257 257 252 245 245 250 256 262 259 267 233 241 259 205 196 208 194 219 222 226 229 233 217 237 233
254 213 225 212 260 259 252 248 244 246 241 237 240 251 257 255 251 257 254 255 213 222 224 212 211 205 202 208 212 219 230 233
254 242 227 210 250 244 250 255 252 237 236 234 235 237 249 258 255 253 253 251 222 212 211 202 193 199 179 195 206 196 209 223
249 234 233 238 237 233 239 248 264 236 247 222 224 229 237 245 256 250 244 250 236 221 207 195 185 189 187 200 209 212 207 211
231 239 235 231 231 199 222 243 261 255 248 227 222 230 240 237 244 242 228 239 237 214 195 189 196 195 200 244 228 224 221 217
278 268 209 179 205 201 210 221 233 243 254 247 219 230 235 235 231 234 223 233 215 201 198 216 205 203 204 200 214 234 227 225
254 280 230 143 227 211 252 249 242 241 217 225 313 253 230 226 221 221 199 205 203 204 199 211 218 205 193 200 208 217 224 224
259 269 229 146 239 245 245 250 233 231 183 111 63 32 205 212 202 210 199 204 207 214 214 215 220 203 209 207 216 219 220 242